This is the latest recevied weather packets stored in our database for station/object KE8AFF-13. If no packets are shown the sender has not sent any weather packets the latest 10 day(s).
| Time | Temp. | Humidity | Pressure | Rain* | Wind** | Luminosity | Snow |
|---|---|---|---|---|---|---|---|
| 1777824663 | 13.89° C | 49% | 1017.3 hPa | 0 mm | - | 731 W/m² | - |
| 1777824361 | 13.89° C | 47% | 1017.6 hPa | 0 mm | - | 737 W/m² | - |
| 1777824056 | 13.33° C | 51% | 1017.4 hPa | 0 mm | - | 734 W/m² | - |
| 1777823753 | 13.33° C | 48% | 1017.7 hPa | 0 mm | - | 721 W/m² | - |
| 1777823450 | 13.33° C | 50% | 1017.7 hPa | 0 mm | - | 695 W/m² | - |
| 1777823147 | 12.78° C | 51% | 1017.7 hPa | 0 mm | - | 678 W/m² | - |
| 1777822844 | 12.78° C | 50% | 1017.8 hPa | 0 mm | - | 709 W/m² | - |
| 1777822543 | 12.78° C | 50% | 1018 hPa | 0 mm | - | 732 W/m² | - |
| 1777822240 | 13.33° C | 51% | 1018.1 hPa | 0 mm | - | 753 W/m² | - |
| 1777821937 | 12.78° C | 50% | 1018.2 hPa | 0 mm | - | 723 W/m² | - |
| 1777821635 | 12.78° C | 50% | 1018.3 hPa | 0 mm | - | 737 W/m² | - |
| 1777821333 | 12.22° C | 51% | 1018 hPa | 0 mm | - | 719 W/m² | - |
| 1777821030 | 12.22° C | 52% | 1018.1 hPa | 0 mm | - | 739 W/m² | - |
| 1777820726 | 12.22° C | 51% | 1018.1 hPa | 0 mm | - | 748 W/m² | - |
| 1777820422 | 12.22° C | 50% | 1018.2 hPa | 0 mm | - | 751 W/m² | - |
| 1777820120 | 12.22° C | 50% | 1018.4 hPa | 0 mm | - | 764 W/m² | - |
| 1777819817 | 11.67° C | 51% | 1018.3 hPa | 0 mm | - | 749 W/m² | - |
| 1777819515 | 11.67° C | 52% | 1018.4 hPa | 0 mm | - | 721 W/m² | - |
| 1777819212 | 11.67° C | 52% | 1018.3 hPa | 0 mm | - | 696 W/m² | - |
| 1777818909 | 11.11° C | 53% | 1018.4 hPa | 0 mm | - | 687 W/m² | - |
| 1777818605 | 11.67° C | 53% | 1018.3 hPa | 0 mm | - | 668 W/m² | - |
| 1777818302 | 11.67° C | 53% | 1018.5 hPa | 0 mm | - | 645 W/m² | - |
| 1777817998 | 11.11° C | 53% | 1018.5 hPa | 0 mm | - | 642 W/m² | - |
| 1777817696 | 10.56° C | 60% | 1018.6 hPa | 0 mm | - | 621 W/m² | - |
| 1777817393 | 10° C | 61% | 1018.6 hPa | 0 mm | - | 605 W/m² | - |
* Rain latest hour (hover to see other rain measurements)
** Current wind speed in m/s (hover to see current wind gust speed)